Tracking 19564 objects as of 20-Mar-2019
HD Live streaming from Space Station
objects crossing your sky now

FENGYUN 1C DEB

Track FENGYUN 1C DEB now!
10-day predictions


NORAD ID: 32103
Int'l Code: 1999-025CQV
Perigee: 625.5 km
Apogee: 735.5 km
Inclination: 96.7 °
Period: 98.2 minutes
Semi major axis: 7051 km
RCS: 0.0063 m2 (small)
Launch date: May 10, 1999
Source: People's Republic of China (PRC)
Launch site: Taiyaun Space Center, China (TSC)

Note: This is SATELLITE DEBRIS
aabbcc
Your satellite tracking list
Your tracking list is empty




NASA's NSSDC Master Catalog

Two Line Element Set (TLE):
1 32103U 99025CQV 19077.79885594 +.00002338 +00000-0 +41280-3 0  9997
2 32103 096.7058 281.2316 0078037 053.8718 001.9969 14.66156002625969
Source of the keplerian elements: AFSPC